{"data":{"norad_id":65148,"epoch":"2026-05-25T03:27:35.341056Z","epoch_age_seconds":56376,"freshness":"FRESH","line1":"1 65148U 25171S   26145.14415904 -.00001588  00000+0 -17942-3 0  9995","line2":"2 65148  51.8977 190.0527 0000814 100.3794 259.7260 14.79926268 44063","mean_motion":14.79926268,"eccentricity":8.14e-5,"inclination_deg":51.8977,"raan_deg":190.0527,"arg_perigee_deg":100.3794,"mean_anomaly_deg":259.726,"bstar":-0.00017942,"rev_number":4406,"period_min":97.302144784959,"perigee_km":628.98645422949,"apogee_km":630.12730679323,"semimajor_km":7007.6938805114,"source":"CELESTRAK","updated_at":"2026-05-25T13:38:05.169438Z"}}